Theta_e
320 320 320 320 320 320 322 324 355 353 348 346 347 349 348 347 348 349 349 340 343 345 346 346 344 346 347 347 343 343 343 343 345 345 345 344 345 342 341 343 342 342 342 342
319 320 319 320 320 321 322 339 352 350 349 349 346 350 348 347 348 349 349 341 343 345 347 345 345 347 348 346 344 342 344 341 342 345 344 345 345 345 343 343 343 343 342 340
321 322 321 322 322 322 320 325 348 351 348 349 350 351 350 347 346 348 349 341 343 345 346 345 346 348 347 345 345 344 342 345 340 346 347 344 345 345 345 345 343 342 342 343
321 322 323 322 323 321 321 320 343 348 347 348 347 351 348 350 350 348 347 340 344 344 345 345 347 348 346 345 345 344 345 346 341 345 347 346 346 345 344 346 345 343 343 343
322 322 322 322 322 320 321 321 337 346 347 348 352 346 344 350 352 350 347 340 342 344 345 346 346 345 344 344 343 344 345 346 344 344 347 346 348 346 345 346 345 345 345 343
320 321 320 320 321 321 323 336 338 336 338 344 348 347 348 349 350 349 347 343 340 344 344 344 345 344 344 344 344 344 345 345 345 343 344 346 348 348 347 346 345 344 345 346
320 322 320 320 320 320 322 330 336 344 344 345 339 346 340 345 346 347 347 345 341 341 344 344 345 344 344 344 343 344 343 343 343 339 342 345 346 346 344 343 348 344 347 345
321 323 321 320 320 319 319 324 326 340 342 339 340 343 343 343 344 346 348 346 345 342 343 344 342 345 344 344 343 342 343 342 342 340 337 344 345 346 344 347 348 348 346 347
320 323 323 322 320 320 322 323 321 324 324 339 342 342 341 344 342 346 347 347 347 344 342 344 343 345 345 345 345 345 344 343 343 340 338 340 343 345 345 346 348 346 345 345
319 323 323 324 322 325 320 321 326 322 328 340 344 347 346 350 347 341 346 346 347 347 345 343 343 343 345 346 346 345 346 345 344 342 339 342 345 346 343 347 348 348 346 347
319 320 323 322 321 323 326 327 322 320 323 338 344 345 347 348 350 348 346 344 347 347 346 346 345 342 343 346 346 346 345 345 344 345 341 344 346 347 343 346 346 347 348 347
319 316 321 323 321 319 323 325 323 325 331 332 338 347 344 346 345 345 344 343 345 346 347 346 346 345 346 346 345 339 342 345 344 347 346 343 341 343 344 341 340 345 346 347
319 317 322 322 319 319 318 318 319 319 324 332 339 346 343 343 343 343 343 342 343 342 341 342 345 347 345 345 344 340 345 344 344 345 346 345 341 341 341 340 341 341 343 345
318 315 319 321 320 320 320 319 318 317 321 332 337 349 347 344 340 338 340 340 340 342 343 341 338 339 345 344 337 336 337 342 344 343 343 344 343 340 341 341 341 341 343 346
316 319 319 320 319 319 320 324 321 320 323 329 343 347 345 343 339 334 335 338 337 336 338 340 341 341 340 341 341 340 338 339 339 342 340 339 341 344 343 343 346 343 342 343
315 319 321 322 321 319 320 319 330 335 339 338 342 344 340 338 332 330 330 329 332 333 334 334 335 339 341 343 342 343 342 342 340 339 339 337 336 337 337 340 345 344 344 344
319 318 319 324 319 319 320 319 320 336 336 340 344 341 335 332 330 328 327 326 327 328 330 334 334 331 332 335 337 339 342 342 342 339 341 338 343 339 338 339 337 338 342 345
313 317 316 320 321 323 319 320 334 336 335 334 336 335 331 330 327 326 326 326 325 325 325 326 327 331 330 329 330 330 331 333 335 339 340 341 345 344 342 339 339 337 340 344
310 313 315 318 322 322 323 318 319 329 336 334 333 331 327 325 325 322 323 324 324 324 324 323 325 326 328 327 327 328 329 328 329 329 330 332 333 337 339 341 343 343 340 340
311 309 313 316 320 322 325 321 322 328 336 328 329 326 325 325 324 320 321 321 321 322 322 322 322 322 323 324 325 325 325 325 327 327 326 325 327 328 325 324 324 328 330 337
313 312 314 316 318 320 318 319 320 324 322 327 325 325 324 324 322 319 319 319 319 319 319 319 319 318 318 317 317 317 318 321 322 323 323 324 324 323 323 320 319 320 326 328
318 314 316 314 318 322 319 318 320 318 319 325 324 323 322 321 320 318 319 318 318 317 317 317 316 316 316 316 315 314 314 313 313 314 316 318 320 321 322 323 322 320 320 325
316 315 317 316 316 317 316 317 318 318 321 325 322 322 323 320 318 317 317 317 317 316 316 315 315 314 314 314 313 311 310 309 309 309 310 311 313 315 317 319 320 322 322 321
314 315 316 316 317 317 316 317 319 319 320 324 323 322 319 317 317 316 316 316 316 316 315 313 311 310 310 309 308 307 307 307 307 309 310 311 312 313 315 317 318 319 321 322
313 313 312 313 316 317 316 315 317 318 319 320 320 320 318 317 316 316 316 315 314 313 312 311 310 309 307 307 306 306 306 306 306 306 307 308 309 310 312 314 316 317 319 319
314 312 312 313 315 315 317 316 315 315 315 317 318 318 318 317 316 315 314 313 313 312 312 310 308 306 305 306 306 306 305 304 304 304 305 305 305 305 306 307 307 308 311 315
Wind_Speed
7 3 6 8 5 5 4 2 9 6 8 6 5 6 10 22 13 12 14 21 31 37 38 37 32 29 26 21 17 19 21 17 17 16 16 13 12 10 11 10 12 12 11 14
5 6 8 6 7 5 3 4 6 8 7 7 10 9 8 18 13 13 15 17 31 30 36 39 35 32 28 22 19 17 19 15 18 16 13 11 11 8 12 9 10 11 13 14
5 4 5 4 2 5 3 5 6 8 7 5 8 2 8 11 14 16 18 19 32 33 38 39 38 34 29 24 22 19 21 14 19 17 14 13 12 10 12 11 10 11 12 12
4 6 4 3 4 6 2 7 8 14 10 5 7 3 5 12 13 15 19 23 34 37 41 42 39 37 31 26 22 20 22 16 15 19 17 13 12 10 8 9 10 11 10 13
6 5 6 5 8 6 9 6 13 13 4 5 4 2 2 11 11 10 18 24 36 42 47 45 42 38 32 27 24 20 23 19 16 21 17 12 11 11 8 9 11 13 10 9
6 4 5 8 4 10 2 9 11 5 3 2 7 6 5 12 17 23 28 26 34 40 43 46 44 39 35 29 25 22 22 22 20 20 22 16 10 12 11 9 10 15 12 13
6 5 5 6 4 1 4 7 2 3 1 5 5 2 4 12 18 26 29 23 32 33 34 33 35 41 38 33 29 24 22 23 22 19 25 21 14 11 11 13 10 13 14 14
3 3 7 3 10 8 7 9 6 6 5 3 5 5 3 7 19 12 27 26 28 33 35 37 35 42 39 35 30 25 24 20 21 22 25 22 17 14 13 12 12 13 13 12
3 5 4 4 5 10 4 4 6 7 2 4 3 1 4 9 9 16 23 26 25 31 34 37 35 31 32 36 35 32 28 23 18 23 24 21 18 15 12 10 12 12 11 12
3 2 1 5 4 4 7 6 3 3 5 3 3 1 2 3 6 6 13 18 21 26 30 32 28 37 34 35 35 33 29 22 19 21 25 24 18 15 14 11 11 14 13 13
3 3 6 1 3 6 3 2 6 5 3 5 3 4 4 3 8 11 13 18 21 21 24 27 28 32 30 32 33 30 27 23 23 22 22 27 23 19 16 16 12 13 14 14
2 4 2 3 4 4 1 5 5 5 3 3 4 3 4 9 11 15 19 20 21 22 22 23 29 29 30 29 18 22 20 21 22 22 21 24 26 23 21 18 16 16 17 16
2 3 2 6 6 7 7 4 4 5 3 4 5 3 4 13 14 17 21 21 22 18 17 20 21 26 26 29 26 21 17 19 19 10 12 19 21 22 20 21 22 21 20 18
3 3 3 4 5 2 3 4 3 4 4 6 3 10 8 10 13 18 24 23 22 22 20 18 17 17 17 21 16 16 15 14 17 18 10 10 16 21 20 21 23 21 21 21
4 4 1 2 3 3 1 3 3 3 4 5 15 16 15 12 11 12 22 33 25 20 19 19 19 16 14 15 13 13 10 14 16 18 5 13 24 17 14 15 22 26 26 23
4 2 0 6 6 6 4 8 9 5 6 7 19 13 6 20 23 20 20 24 27 23 23 21 17 17 19 16 11 7 4 7 10 15 15 16 8 20 23 18 22 15 24 23
4 2 3 1 4 5 6 8 6 4 2 21 16 11 18 16 19 24 24 29 28 25 23 20 18 19 20 19 18 18 17 15 20 24 20 15 16 12 12 20 18 19 19 17
3 4 3 1 4 4 4 7 9 11 3 5 15 18 19 22 19 22 28 33 32 29 24 19 17 17 15 15 15 15 15 16 17 17 15 14 15 16 17 12 10 21 20 24
5 3 3 3 2 1 6 8 4 3 7 7 22 19 24 29 30 16 26 27 27 26 24 21 15 13 12 11 11 10 11 12 12 13 10 10 9 8 8 9 9 14 16 21
5 7 4 2 2 4 6 8 5 8 3 3 22 23 31 32 10 8 28 26 24 22 19 19 16 11 8 6 4 3 4 5 6 7 6 6 7 7 7 7 5 3 4 6
4 4 3 1 1 3 3 10 12 5 7 24 25 33 32 12 12 33 31 26 22 20 19 15 12 9 7 6 4 4 4 4 3 2 2 2 3 4 4 3 2 3 4 4
2 3 1 1 3 2 8 6 5 3 2 30 31 39 31 23 33 37 33 29 25 23 18 13 10 8 5 4 5 6 7 9 10 10 9 9 8 8 7 6 5 5 4 5
1 4 4 4 5 7 6 1 2 5 13 27 33 31 32 35 46 39 35 29 22 17 14 10 7 5 5 6 6 6 5 6 6 7 10 11 11 11 10 9 9 9 8 8
2 2 3 3 3 2 8 11 13 7 14 26 31 28 32 42 42 38 32 27 22 16 11 7 6 7 8 8 7 7 6 6 6 5 5 7 9 11 11 11 10 10 10 10
3 2 3 1 3 0 4 11 15 17 19 22 23 27 35 39 36 32 28 23 19 16 12 8 6 8 8 7 6 6 5 4 4 4 4 4 5 5 7 10 11 11 11 12
1 4 3 4 3 2 5 9 16 18 19 18 21 25 27 28 28 25 22 19 15 11 8 6 6 6 7 7 6 5 3 3 2 2 2 3 3 4 5 6 5 9 11 13
Wind_Direction
184 131 200 193 175 131 102 2 79 69 83 86 258 285 188 189 200 206 198 168 173 182 194 192 189 187 182 180 177 180 175 177 189 184 186 190 192 201 211 205 204 195 194 197
45 213 220 172 167 126 124 101 89 79 128 73 264 252 173 199 224 221 206 180 173 175 184 190 189 187 185 180 178 177 184 196 196 191 189 196 188 185 195 192 199 201 206 195
157 245 171 147 136 128 138 160 176 141 146 143 170 306 200 223 232 236 225 192 179 176 181 186 189 187 186 187 183 180 185 199 196 197 201 189 179 192 186 182 182 187 189 198
223 233 147 164 230 137 204 192 155 151 165 176 165 218 220 182 212 236 222 182 173 179 185 188 190 188 189 194 192 187 189 198 200 199 199 201 200 189 187 187 177 177 181 197
245 181 189 190 214 152 223 154 180 160 96 100 176 121 226 164 200 225 227 194 182 184 187 190 191 193 193 196 199 199 198 200 200 205 207 212 213 205 212 201 187 186 177 181
222 242 173 209 217 181 137 83 60 66 107 323 189 189 192 178 185 198 224 197 186 187 185 192 195 193 196 197 202 204 204 205 206 213 211 211 211 213 211 214 204 191 189 190
330 261 234 174 252 248 129 96 54 56 45 221 163 157 219 201 195 201 199 181 184 188 185 183 191 197 198 199 204 207 211 212 210 217 213 217 215 221 233 227 227 209 206 207
185 304 167 182 185 190 186 154 150 157 187 235 99 222 295 268 212 174 185 164 171 177 181 185 208 206 203 204 206 209 214 216 216 218 218 222 223 226 237 225 232 222 230 230
172 269 293 186 161 145 193 146 184 105 17 101 197 28 21 42 77 128 132 154 150 163 169 179 201 200 206 209 210 213 216 219 223 224 224 226 228 230 227 222 216 221 234 229
228 257 271 277 133 46 155 160 76 14 139 148 331 78 249 51 109 96 100 127 145 156 160 173 191 208 216 212 212 214 216 223 237 231 229 230 234 237 235 228 234 226 219 217
112 145 288 359 47 170 48 71 60 110 106 145 142 282 336 160 124 121 113 126 137 149 171 180 191 202 211 213 213 211 211 214 225 233 236 234 237 236 238 236 234 227 227 232
334 130 201 230 285 265 54 148 127 122 197 78 115 259 42 87 96 111 122 135 141 148 147 161 173 178 184 189 179 212 224 227 224 231 239 239 238 242 244 247 244 246 246 245
19 16 43 3 360 6 50 348 97 106 88 169 123 237 123 99 90 99 111 120 136 147 152 162 176 170 176 189 206 237 218 225 221 202 235 238 240 241 249 251 251 251 257 262
85 69 120 144 220 225 14 328 119 106 110 151 172 143 158 131 122 107 105 102 110 130 145 150 161 174 190 195 188 182 208 208 224 203 212 234 238 238 244 250 254 253 255 256
87 99 55 45 339 154 115 325 183 143 156 143 162 156 164 150 129 128 128 119 119 116 121 125 138 151 154 168 192 212 223 258 247 231 253 267 245 228 247 265 252 250 250 252
355 132 111 354 16 19 35 21 37 46 114 66 150 148 151 136 131 124 115 111 118 123 120 112 116 124 129 144 155 161 196 198 197 193 200 244 203 247 270 255 250 258 244 249
45 80 54 147 319 37 353 356 342 43 291 143 161 168 145 144 139 134 132 124 125 123 115 122 118 106 109 115 122 123 124 145 173 200 209 218 222 207 266 281 251 253 257 244
84 79 30 208 24 64 266 18 75 79 31 130 114 141 139 134 132 135 136 138 135 129 124 119 114 116 118 111 113 114 117 117 123 138 159 154 188 219 227 236 243 249 242 249
44 106 71 108 101 219 350 351 346 24 33 134 130 129 121 121 119 113 137 135 134 135 138 136 136 128 127 124 114 117 112 110 114 114 118 123 130 143 155 191 213 234 236 247
41 62 102 65 104 195 236 269 357 97 69 4 133 135 139 140 138 167 151 149 142 146 145 143 143 140 151 148 149 146 126 124 124 120 120 126 138 147 150 155 171 212 242 250
2 4 105 101 120 296 204 285 327 280 222 167 160 152 156 159 150 154 155 152 153 153 152 158 158 170 186 201 230 255 260 268 282 252 229 225 222 219 204 184 193 168 143 138
133 114 248 60 90 234 3 338 178 235 104 169 170 160 159 152 156 157 159 160 161 157 158 169 182 185 200 235 252 262 265 263 265 265 261 260 256 254 248 236 241 247 224 210
25 175 178 154 216 278 2 103 307 244 180 172 170 169 167 162 159 163 161 162 163 165 169 180 208 205 224 258 286 296 297 291 287 265 258 255 254 256 256 250 245 244 247 248
311 159 102 76 295 323 83 89 83 105 163 178 178 175 170 159 162 160 161 164 168 177 189 205 240 243 242 244 248 267 284 288 291 294 278 263 261 256 255 258 258 259 258 254
232 21 124 333 317 327 154 134 121 116 115 127 156 167 167 164 163 166 166 169 172 173 178 188 215 226 234 237 238 230 241 258 263 266 274 277 271 270 266 267 264 266 274 276
339 173 147 209 167 227 225 183 164 151 148 154 157 166 174 176 173 173 170 171 172 170 183 206 215 214 206 199 203 208 203 203 227 252 272 288 302 307 297 282 266 279 271 272